Date String (YYYY-MM-DD hh:mm:ss) UTC,Instrument flags,absolute air pressure of the measurement (hPa),sample flow rate (lpm),inlet stack bypass flow (lpm),air temperature of the measurement (°C),ambient temperature measured by the external sensor (°C),aerosol sample conditioner tube jacket temperature (°C),OPC LED temperature (°C),internal box temperature (°C),relative humidity of the measurement (%),span deviation,mass concentration of particles derived from Lorenz-Mie calculation of OPC scattering (μg/m³),mass concentration of particles derived from Lorenz-Mie calculation of OPC scattering (μg/m³),mass concentration of particles derived from Lorenz-Mie calculation of OPC scattering (μg/m³)
DateTimeUTC,F1_M11,P_M11,Q1_M11,Q2_M11,T1_M11,T2_M11,T3_M11,T4_M11,T5_M11,U1_M11,ZSPAN_M11,X2_M11,X0_M11,X1_M11
2023-10-21 03:00:00,SystemResetWarning,0831.5,5.01,000.00,028.3,024.4,000.0,036.6,029.9,10.5,0000.0,0002.69,0011.13,0000.93
2023-10-21 03:01:00,SystemResetWarning,0831.5,5.00,000.00,028.2,024.5,000.0,036.6,029.7,10.4,0000.0,0002.72,0010.65,0000.92
2023-10-21 03:02:00,SystemResetWarning,0831.6,4.99,000.00,028.1,024.9,000.0,036.6,029.6,10.2,0000.0,0002.64,0010.38,0000.92
2023-10-21 03:03:00,SystemResetWarning,0831.6,5.00,000.00,028.1,025.3,000.0,036.6,029.7,10.1,0000.0,0002.68,0010.50,0000.93
2023-10-21 03:04:00,SystemResetWarning,0831.5,5.00,000.00,028.1,025.6,000.0,036.6,029.8,10.0,0000.0,0002.71,0009.85,0000.95
2023-10-21 03:05:00,SystemResetWarning,0831.5,4.99,000.00,028.1,026.0,000.0,036.6,029.8,10.0,0000.0,0002.69,0009.47,0000.96
2023-10-21 03:06:00,SystemResetWarning,0831.5,5.00,000.00,028.1,026.2,000.0,036.6,029.8,10.0,0000.0,0002.71,0009.99,0000.97
2023-10-21 03:07:00,SystemResetWarning,0831.6,5.01,000.00,028.1,026.4,000.0,036.6,029.9,10.1,0000.0,0002.70,0009.58,0000.97
2023-10-21 03:08:00,SystemResetWarning,0831.5,5.00,000.00,028.2,026.6,000.0,036.6,030.0,10.1,0000.0,0002.71,0009.59,0000.97
2023-10-21 03:09:00,SystemResetWarning,0831.6,5.01,000.00,028.2,026.8,000.0,036.7,030.0,10.1,0000.0,0002.63,0009.84,0000.97
2023-10-21 03:10:00,SystemResetWarning,0831.6,5.00,000.00,028.2,026.9,000.0,036.7,030.0,9.9,0000.0,0002.63,0010.34,0000.97
2023-10-21 03:11:00,SystemResetWarning,0831.5,4.99,000.00,028.3,027.0,000.0,036.7,030.1,9.9,0000.0,0002.47,0009.95,0000.95
2023-10-21 03:12:00,SystemResetWarning,0831.6,5.00,000.00,028.3,027.1,000.0,036.7,030.1,9.9,0000.0,0002.42,0009.87,0000.93
2023-10-21 03:13:00,SystemResetWarning,0831.6,4.99,000.00,028.3,027.2,000.0,036.7,030.2,9.8,0000.0,0002.48,0010.79,0000.93
2023-10-21 03:14:00,SystemResetWarning,0831.6,5.00,000.00,028.4,027.2,000.0,036.7,030.2,9.7,0000.0,0002.48,0010.74,0000.92
2023-10-21 03:15:00,SystemResetWarning,0831.6,5.01,000.00,028.4,027.3,000.0,036.8,030.2,9.7,0000.0,0002.48,0011.03,0000.91
2023-10-21 03:16:00,SystemResetWarning,0831.6,5.01,000.00,028.4,027.3,000.0,036.8,030.2,9.7,0000.0,0002.55,0011.17,0000.91
2023-10-21 03:17:00,SystemResetWarning,0831.6,5.00,000.00,028.5,027.4,000.0,036.8,030.3,9.7,0000.0,0002.52,0010.66,0000.90
2023-10-21 03:18:00,SystemResetWarning,0831.6,4.98,000.00,028.5,026.1,000.0,036.8,030.2,9.7,0000.0,0002.47,0010.82,0000.90
2023-10-21 03:19:00,SystemResetWarning,0831.6,5.02,000.00,028.4,024.5,000.0,036.7,030.0,9.8,0000.0,0002.48,0010.74,0000.90
2023-10-21 03:20:00,SystemResetWarning,0831.6,5.01,000.00,028.3,024.3,000.0,036.7,029.8,9.8,0000.0,0002.49,0010.49,0000.90
2023-10-21 03:21:00,SystemResetWarning,0831.5,5.00,000.00,028.2,024.5,000.0,036.7,029.6,10.0,0000.0,0002.46,0009.72,0000.91
2023-10-21 03:22:00,SystemResetWarning,0831.6,5.00,000.00,028.1,024.9,000.0,036.7,029.7,10.1,0000.0,0002.50,0009.21,0000.92
2023-10-21 03:23:00,SystemResetWarning,0831.6,5.00,000.00,028.1,025.3,000.0,036.7,029.7,10.1,0000.0,0002.51,0009.43,0000.93
2023-10-21 03:24:00,SystemResetWarning,0831.6,4.99,000.00,028.1,025.7,000.0,036.7,029.8,10.2,0000.0,0002.48,0009.04,0000.93
2023-10-21 03:25:00,SystemResetWarning,0831.6,5.00,000.00,028.1,026.0,000.0,036.7,029.8,10.3,0000.0,0002.40,0009.43,0000.91
2023-10-21 03:26:00,SystemResetWarning,0831.6,5.01,000.00,028.1,026.2,000.0,036.7,029.9,10.3,0000.0,0002.42,0009.33,0000.91
2023-10-21 03:27:00,SystemResetWarning,0831.6,5.00,000.00,028.1,026.4,000.0,036.7,029.9,10.3,0000.0,0002.38,0009.72,0000.91
2023-10-21 03:28:00,SystemResetWarning,0831.6,5.00,000.00,028.2,026.6,000.0,036.7,030.0,10.3,0000.0,0002.38,0009.50,0000.90
2023-10-21 03:29:00,SystemResetWarning,0831.6,5.00,000.00,028.2,026.7,000.0,036.7,030.0,10.2,0000.0,0002.38,0009.16,0000.90
2023-10-21 03:30:00,SystemResetWarning,0831.6,5.00,000.00,028.2,026.9,000.0,036.7,030.0,10.2,0000.0,0002.34,0009.79,0000.91
2023-10-21 03:31:00,SystemResetWarning,0831.6,5.00,000.00,028.2,027.0,000.0,036.7,030.1,10.2,0000.0,0002.36,0009.86,0000.92
2023-10-21 03:32:00,SystemResetWarning,0831.6,5.00,000.00,028.3,027.1,000.0,036.7,030.1,10.2,0000.0,0002.38,0010.10,0000.92
2023-10-21 03:33:00,SystemResetWarning,0831.6,5.00,000.00,028.3,027.1,000.0,036.7,030.1,10.1,0000.0,0002.41,0010.56,0000.91
2023-10-21 03:34:00,SystemResetWarning,0831.6,5.00,000.00,028.4,027.2,000.0,036.8,030.1,9.9,0000.0,0002.45,0011.26,0000.92
2023-10-21 03:35:00,SystemResetWarning,0831.6,5.00,000.00,028.4,027.3,000.0,036.8,030.2,9.8,0000.0,0002.48,0011.77,0000.92
2023-10-21 03:36:00,SystemResetWarning,0831.6,4.99,000.00,028.4,027.3,000.0,036.8,030.2,9.8,0000.0,0002.48,0011.53,0000.93
2023-10-21 03:37:00,SystemResetWarning,0831.6,4.99,000.00,028.5,027.3,000.0,036.8,030.2,9.8,0000.0,0002.53,0011.47,0000.94
2023-10-21 03:38:00,SystemResetWarning,0831.6,5.00,000.00,028.5,027.4,000.0,036.8,030.2,9.9,0000.0,0002.51,0011.35,0000.93
2023-10-21 03:39:00,SystemResetWarning,0831.6,5.00,000.00,028.5,027.4,000.0,036.8,030.2,9.9,0000.0,0002.50,0011.77,0000.93
2023-10-21 03:40:00,SystemResetWarning,0831.6,4.99,000.00,028.5,026.8,000.0,036.8,030.2,9.8,0000.0,0002.47,0012.36,0000.92
2023-10-21 03:41:00,SystemResetWarning,0831.6,5.00,000.00,028.5,024.9,000.0,036.8,030.1,9.9,0000.0,0002.49,0011.65,0000.92
2023-10-21 03:42:00,SystemResetWarning,0831.5,5.01,000.00,028.4,024.3,000.0,036.7,029.9,9.9,0000.0,0002.45,0011.77,0000.92
2023-10-21 03:43:00,SystemResetWarning,0831.6,5.01,000.00,028.3,024.4,000.0,036.7,029.7,10.0,0000.0,0002.38,0011.67,0000.91
2023-10-21 03:44:00,SystemResetWarning,0831.6,4.99,000.00,028.2,024.7,000.0,036.7,029.7,10.0,0000.0,0002.26,0011.37,0000.90
2023-10-21 03:45:00,SystemResetWarning,0831.6,5.00,000.00,028.1,025.1,000.0,036.7,029.7,10.0,0000.0,0002.14,0010.41,0000.89
2023-10-21 03:46:00,SystemResetWarning,0831.6,5.01,000.00,028.1,025.5,000.0,036.7,029.7,10.0,0000.0,0002.04,0009.45,0000.89
2023-10-21 03:47:00,SystemResetWarning,0831.6,5.00,000.00,028.1,025.8,000.0,036.7,029.8,10.0,0000.0,0002.08,0009.96,0000.90
2023-10-21 03:48:00,SystemResetWarning,0831.6,4.99,000.00,028.1,026.1,000.0,036.7,029.9,10.0,0000.0,0002.06,0011.39,0000.90
2023-10-21 03:49:00,SystemResetWarning,0831.6,5.00,000.00,028.1,026.3,000.0,036.7,029.9,10.0,0000.0,0001.98,0011.82,0000.90
2023-10-21 03:50:00,SystemResetWarning,0831.6,5.00,000.00,028.2,026.5,000.0,036.7,029.9,10.0,0000.0,0001.90,0011.42,0000.90
2023-10-21 03:51:00,SystemResetWarning,0831.6,5.00,000.00,028.2,026.6,000.0,036.7,029.9,10.0,0000.0,0001.90,0010.99,0000.89
2023-10-21 03:52:00,SystemResetWarning,0831.6,5.00,000.00,028.2,026.7,000.0,036.7,030.0,10.0,0000.0,0001.89,0011.05,0000.88
2023-10-21 03:53:00,SystemResetWarning,0831.6,5.00,000.00,028.2,026.8,000.0,036.7,030.0,10.0,0000.0,0001.92,0010.93,0000.88
2023-10-21 03:54:00,SystemResetWarning,0831.6,5.00,000.00,028.3,026.9,000.0,036.7,030.1,10.0,0000.0,0001.99,0011.11,0000.88
2023-10-21 03:55:00,SystemResetWarning,0831.6,5.00,000.00,028.3,027.0,000.0,036.7,030.1,10.0,0000.0,0002.10,0010.74,0000.90
2023-10-21 03:56:00,SystemResetWarning,0831.6,5.00,000.00,028.3,027.1,000.0,036.7,030.1,10.0,0000.0,0002.15,0011.06,0000.89
2023-10-21 03:57:00,SystemResetWarning,0831.6,5.00,000.00,028.3,027.1,000.0,036.8,030.1,9.9,0000.0,0002.16,0011.22,0000.88
2023-10-21 03:58:00,SystemResetWarning,0831.6,5.00,000.00,028.4,027.2,000.0,036.8,030.1,9.9,0000.0,0002.20,0010.70,0000.89
2023-10-21 03:59:00,SystemResetWarning,0831.6,5.00,000.00,028.4,027.2,000.0,036.8,030.2,9.9,0000.0,0002.20,0009.42,0000.88
